Dubuque, IA

12:13 AM CDT on August 23, 2019 (GMT -0500)
Dubuque Regional

Weather History for KDBQ - June, 2019

Change the Weather History Date:

Thursday, June 6, 2019

  Actual Average Record
Temperature  
Mean Temperature 72 °F 66 °F  
Max Temperature 82 °F 76 °F 95 °F (1933)
Min Temperature 63 °F 55 °F 43 °F (1894)
Degree Days  
Heating Degree Days 0 2  
Month to date heating degree days 5 16  
Since 1 June heating degree days 5 16  
Since 1 July heating degree days 7407 7062  
Cooling Degree Days 8 3  
Month to date cooling degree days 20 16  
Year to date cooling degree days 46 53  
Since 1 June cooling degree days 20 16  
Growing Degree Days 22 (Base 50)    
Moisture  
Dew Point 65 °F    
Average Humidity 78    
Maximum Humidity 93    
Minimum Humidity 54    
Precipitation  
Precipitation 0.00 in 0.16 in 1.43 in (1881)
Month to date precipitation 2.03 0.90  
Year to date precipitation 19.27 13.77  
Snow  
Snow 0.00 in 0.00 in - ()
Month to date snowfall 0.0 0.0  
Since 1 June snowfall 0.0 0.0  
Since 1 July snowfall 55.2 41.9  
Snow Depth 0.00 in    
Sea Level Pressure  
Sea Level Pressure 29.87 in    
Wind  
Wind Speed 4 mph ()    
Max Wind Speed 14 mph    
Max Gust Speed 18 mph    
Visibility 9.1 miles    
Events      
T = Trace of Precipitation, MM = Missing Value Source: Averaged Metar Reports

Daily Weather History Graph

Daily Weather History Graph

Search for Another Location

Airport or City:

Astronomy

Jun. 06, 2019 Rise Set
Actual Time 5:26 AM CDT 8:36 PM CDT
Civil Twilight 4:52 AM CDT 9:11 PM CDT
Nautical Twilight 4:08 AM CDT 9:55 PM CDT
Astronomical Twilight 3:15 AM CDT 10:48 PM CDT
Moon 8:35 AM CDT (6/6) 11:53 PM CDT (6/6)
Length of Visible Light 16h 18m
Length of Day
15h 10m
Waxing Crescent, 14% of the Moon is Illuminated
Jun 6
Waxing Crescent
Jun 10
First Quarter
Jun 17
Full
Jun 25
Last Quarter
Jul 2
New

Hourly Weather History & Observations

Time (CDT) Temp. Heat Index Dew Point Humidity Pressure Visibility Wind Dir Wind Speed Gust Speed Precip Events Conditions
12:53 AM 68.0 °F - 63.0 °F 84% 29.84 in 10.0 mi Calm Calm - N/A   Clear
1:53 AM 66.9 °F - 63.0 °F 87% 29.83 in 10.0 mi NNE 5.8 mph - N/A   Clear
2:53 AM 66.9 °F - 63.0 °F 87% 29.82 in 10.0 mi North 5.8 mph - N/A   Clear
3:53 AM 64.9 °F - 62.1 °F 90% 29.82 in 10.0 mi NNE 4.6 mph - N/A   Clear
4:53 AM 64.9 °F - 63.0 °F 93% 29.83 in 10.0 mi NE 3.5 mph - N/A   Clear
5:53 AM 64.0 °F - 62.1 °F 93% 29.84 in 7.0 mi Calm Calm - N/A   Clear
6:53 AM 68.0 °F - 64.9 °F 90% 29.86 in 7.0 mi NE 3.5 mph - N/A   Clear
7:35 AM 66.9 °F - 64.9 °F 93% 29.90 in 3.0 mi NNE 5.8 mph - N/A   Scattered Clouds
7:53 AM 68.0 °F - 64.9 °F 90% 29.88 in 4.0 mi NNE 9.2 mph - N/A   Partly Cloudy
8:53 AM 71.1 °F - 64.9 °F 81% 29.89 in 8.0 mi SE 5.8 mph - N/A   Clear
9:53 AM 73.9 °F - 66.9 °F 79% 29.88 in 10.0 mi Variable 3.5 mph - N/A   Clear
10:53 AM 78.1 °F - 66.9 °F 68% 29.88 in 10.0 mi ESE 4.6 mph - N/A   Clear
11:53 AM 80.1 °F 82.3 °F 66.9 °F 64% 29.88 in 10.0 mi NE 5.8 mph - N/A   Partly Cloudy
12:53 PM 79.0 °F - 64.9 °F 62% 29.88 in 10.0 mi ESE 6.9 mph - N/A   Partly Cloudy
1:53 PM 81.0 °F 82.2 °F 63.0 °F 54% 29.88 in 10.0 mi Variable 4.6 mph - N/A   Mostly Cloudy
2:53 PM 81.0 °F 82.2 °F 63.0 °F 54% 29.87 in 10.0 mi SE 6.9 mph - N/A   Scattered Clouds
3:53 PM 80.1 °F 81.5 °F 63.0 °F 56% 29.87 in 10.0 mi SSE 8.1 mph - N/A   Overcast
4:53 PM 79.0 °F - 64.9 °F 62% 29.87 in 10.0 mi SSE 8.1 mph - N/A   Mostly Cloudy
5:53 PM 77.0 °F - 66.0 °F 69% 29.88 in 10.0 mi East 11.5 mph 17.3 mph N/A   Mostly Cloudy
6:53 PM 75.9 °F - 66.0 °F 71% 29.87 in 10.0 mi ESE 5.8 mph - N/A   Clear
7:53 PM 73.9 °F - 66.9 °F 79% 29.88 in 10.0 mi ESE 3.5 mph - N/A   Clear
8:53 PM 71.1 °F - 64.0 °F 78% 29.88 in 10.0 mi NE 4.6 mph - N/A   Clear
9:53 PM 69.1 °F - 64.0 °F 84% 29.90 in 10.0 mi Calm Calm - N/A   Clear
10:53 PM 69.1 °F - 64.9 °F 87% 29.90 in 10.0 mi NE 4.6 mph - N/A   Clear
11:53 PM 68.0 °F - 66.0 °F 93% 29.90 in 8.0 mi ENE 4.6 mph - N/A   Clear